Retour au catalogue

STARLINK-31602

ActifCommunicationsVLEO
NORAD 59202·PAYLOAD·🇺🇸 United States

Lancé Mar 11, 2024 depuis Vandenberg Space Force Base

Loading…

Prochains Passages (prochaines 24 heures)

TLE

FraisSource: CelesTrak SupGP

Époque: Sep 15, 2026, 03:07 UTC

1 59202C 24046B   26258.13034722  .00073711  00000+0  21768-2 0  2581
2 59202  53.1601 351.0495 0001144  86.5443 330.0006 15.34368266    10

Suivez STARLINK-31602 en temps réel avec AllMySat

Download on the App Store